Вернуться в каталог

STARLINK-30715

АктивенСвязьVLEO
NORAD 57941·PAYLOAD·🇺🇸 United States

Запущен Sep 25, 2023 с Vandenberg Space Force Base

Loading…

Ближайшие Пролёты (ближайшие 24 часа)

TLE

СвежийSource: CelesTrak SupGP

Эпоха: Sep 15, 2026, 02:40 UTC

1 57941C 23148G   26258.11159722 -.00057090  00000+0 -16867-2 0  2585
2 57941  53.1588 212.5487 0001408  92.8802 144.7355 15.34420045    17

Отслеживайте STARLINK-30715 в реальном времени с AllMySat

Download on the App Store